When you browse on this site, cookies collect data to enhance your experience and personalize the content and advertising you see.
Visit our Privacy Policy to learn more. By continuing to use the site, you agree to this use of cookies and data.
  • In Hungary
  • List of Countries
  • For 7 days
  • Water Temperature
  • Weather Map
  • News
  • Weather Widgets
  • user-avatar
    Login

    Hourly Weather Pryahino

    Today, 14 October, Monday

    Time Temperature Precipitation Wind Pressure Humidity
    00:00 +14°C° 0 mm 7 mps 748 mmHg 75%
    01:00 +14°C° 0 mm 6 mps 748 mmHg 77%
    02:00 +13°C° 0 mm 4 mps 749 mmHg 78%
    03:00 +12°C° 0 mm 4 mps 749 mmHg 83%
    04:00 +12°C° 0 mm 4 mps 749 mmHg 84%
    05:00 +12°C° 0 mm 4 mps 750 mmHg 86%
    06:00 +12°C° 0 mm 3 mps 750 mmHg 87%
    07:00 +12°C° 0 mm 4 mps 750 mmHg 83%
    08:00 +13°C° 0 mm 5 mps 751 mmHg 80%
    09:00 +14°C° 0 mm 5 mps 751 mmHg 76%
    10:00 +14°C° 0 mm 5 mps 751 mmHg 71%
    11:00 +15°C° 0 mm 6 mps 752 mmHg 66%
    12:00 +15°C° 0 mm 6 mps 752 mmHg 60%
    13:00 +16°C° 0 mm 5 mps 752 mmHg 60%
    14:00 +16°C° 0 mm 5 mps 752 mmHg 59%
    15:00 +16°C° 0 mm 5 mps 752 mmHg 59%
    16:00 +15°C° 0 mm 5 mps 752 mmHg 66%
    17:00 +14°C° 0 mm 4 mps 752 mmHg 73%
    18:00 +14°C° 0 mm 3 mps 752 mmHg 80%
    19:00 +13°C° 0 mm 3 mps 752 mmHg 84%
    20:00 +13°C° 0 mm 3 mps 752 mmHg 87%
    21:00 +13°C° 0 mm 3 mps 752 mmHg 91%
    22:00 +13°C° 0 mm 3 mps 751 mmHg 90%
    23:00 +13°C° 0 mm 4 mps 751 mmHg 90%

    Tomorrow, 15 October, Tuesday

    Time Temperature Precipitation Wind Pressure Humidity
    00:00 +13°C° 0 mm 4 mps 750 mmHg 89%
    01:00 +13°C° 0 mm 5 mps 750 mmHg 85%
    02:00 +14°C° 0 mm 5 mps 750 mmHg 82%
    03:00 +14°C° 0 mm 6 mps 750 mmHg 78%
    04:00 +14°C° 0 mm 6 mps 749 mmHg 76%
    05:00 +14°C° 0 mm 7 mps 749 mmHg 74%
    06:00 +14°C° 0 mm 7 mps 748 mmHg 72%
    07:00 +15°C° 0 mm 8 mps 748 mmHg 68%
    08:00 +16°C° 0 mm 8 mps 748 mmHg 63%
    09:00 +16°C° 0 mm 9 mps 748 mmHg 58%
    10:00 +18°C° 0 mm 9 mps 748 mmHg 54%
    11:00 +19°C° 0 mm 9 mps 748 mmHg 50%
    12:00 +21°C° 0 mm 9 mps 748 mmHg 45%
    13:00 +21°C° 0 mm 8 mps 748 mmHg 46%
    14:00 +21°C° 0 mm 8 mps 748 mmHg 47%
    15:00 +21°C° 0 mm 8 mps 748 mmHg 48%
    16:00 +20°C° 0 mm 6 mps 748 mmHg 55%
    17:00 +17°C° 0 mm 5 mps 748 mmHg 63%
    18:00 +17°C° 0 mm 4 mps 748 mmHg 70%
    19:00 +15°C° 0 mm 4 mps 749 mmHg 71%
    20:00 +14°C° 0 mm 3 mps 749 mmHg 72%
    21:00 +13°C° 0 mm 3 mps 750 mmHg 74%
    22:00 +12°C° 0 mm 3 mps 750 mmHg 75%
    23:00 +12°C° 0 mm 3 mps 750 mmHg 77%

    Day after tomorrow, 16 October, Wednesday

    Time Temperature Precipitation Wind Pressure Humidity
    00:00 +11°C° 0 mm 3 mps 751 mmHg 79%
    01:00 +11°C° 0 mm 3 mps 751 mmHg 81%
    02:00 +10°C° 0 mm 4 mps 752 mmHg 83%
    03:00 +8°C° 0 mm 4 mps 752 mmHg 85%
    04:00 +8°C° 0 mm 4 mps 753 mmHg 84%
    05:00 +7°C° 0 mm 4 mps 753 mmHg 82%
    06:00 +6°C° 0 mm 4 mps 753 mmHg 81%
    07:00 +7°C° 0 mm 4 mps 754 mmHg 77%
    08:00 +7°C° 0 mm 4 mps 754 mmHg 72%
    09:00 +8°C° 0 mm 4 mps 755 mmHg 67%
    10:00 +8°C° 0 mm 4 mps 755 mmHg 62%
    11:00 +10°C° 0 mm 4 mps 755 mmHg 56%
    12:00 +11°C° 0 mm 4 mps 756 mmHg 50%
    13:00 +11°C° 0 mm 3 mps 756 mmHg 48%
    14:00 +11°C° 0 mm 3 mps 756 mmHg 46%
    15:00 +11°C° 0 mm 3 mps 756 mmHg 44%
    16:00 +10°C° 0 mm 3 mps 756 mmHg 47%
    17:00 +9°C° 0 mm 3 mps 756 mmHg 50%
    18:00 +8°C° 0 mm 2 mps 756 mmHg 53%
    19:00 +8°C° 0 mm 3 mps 756 mmHg 55%
    20:00 +7°C° 0 mm 3 mps 757 mmHg 57%
    21:00 +7°C° 0 mm 3 mps 757 mmHg 60%
    22:00 +7°C° 0 mm 3 mps 757 mmHg 62%
    23:00 +5°C° 0 mm 3 mps 757 mmHg 64%

    17 October, Thursday

    Time Temperature Precipitation Wind Pressure Humidity
    00:00 +6°C° 0 mm 2 mps 757 mmHg 67%
    01:00 +5°C° 0 mm 2 mps 757 mmHg 68%
    02:00 +5°C° 0 mm 2 mps 757 mmHg 69%
    03:00 +5°C° 0 mm 2 mps 757 mmHg 71%
    04:00 +5°C° 0 mm 2 mps 757 mmHg 72%
    05:00 +5°C° 0 mm 2 mps 757 mmHg 73%
    06:00 +4°C° 0 mm 2 mps 757 mmHg 74%
    07:00 +4°C° 0 mm 3 mps 757 mmHg 69%
    08:00 +5°C° 0 mm 3 mps 757 mmHg 64%
    09:00 +7°C° 0 mm 3 mps 757 mmHg 59%
    10:00 +8°C° 0 mm 4 mps 756 mmHg 54%
    11:00 +10°C° 0 mm 4 mps 756 mmHg 49%
    12:00 +11°C° 0 mm 4 mps 756 mmHg 44%
    13:00 +11°C° 0 mm 4 mps 755 mmHg 43%
    14:00 +12°C° 0 mm 4 mps 755 mmHg 41%
    15:00 +12°C° 0 mm 4 mps 754 mmHg 40%
    16:00 +11°C° 0 mm 4 mps 754 mmHg 43%
    17:00 +10°C° 0 mm 4 mps 753 mmHg 45%
    18:00 +9°C° 0 mm 3 mps 753 mmHg 48%
    19:00 +8°C° 0 mm 4 mps 753 mmHg 51%
    20:00 +8°C° 0 mm 4 mps 753 mmHg 54%
    21:00 +8°C° 0 mm 4 mps 752 mmHg 57%
    22:00 +8°C° 0 mm 4 mps 752 mmHg 61%
    23:00 +8°C° 0 mm 4 mps 751 mmHg 66%

    18 October, Friday

    Time Temperature Precipitation Wind Pressure Humidity
    00:00 +8°C° 0 mm 4 mps 751 mmHg 70%
    01:00 +8°C° 0 mm 4 mps 751 mmHg 74%
    02:00 +8°C° 0 mm 4 mps 750 mmHg 78%
    03:00 +8°C° 0 mm 4 mps 750 mmHg 81%
    04:00 +8°C° 0 mm 4 mps 750 mmHg 83%
    05:00 +8°C° 0 mm 4 mps 749 mmHg 84%
    06:00 +8°C° 0 mm 4 mps 749 mmHg 86%
    07:00 +10°C° 0 mm 4 mps 749 mmHg 82%
    08:00 +10°C° 0 mm 5 mps 749 mmHg 78%
    09:00 +12°C° 0 mm 5 mps 749 mmHg 73%
    10:00 +13°C° 0 mm 5 mps 749 mmHg 72%
    11:00 +13°C° 0 mm 5 mps 749 mmHg 72%
    12:00 +13°C° 0 mm 4 mps 749 mmHg 71%
    13:00 +14°C° 0 mm 4 mps 749 mmHg 69%
    14:00 +14°C° 0 mm 4 mps 749 mmHg 67%
    15:00 +14°C° 0 mm 3 mps 749 mmHg 65%
    16:00 +12°C° 0 mm 4 mps 750 mmHg 69%
    17:00 +10°C° 0 mm 5 mps 750 mmHg 73%
    18:00 +9°C° 0 mm 7 mps 751 mmHg 77%
    19:00 +7°C° 0 mm 6 mps 752 mmHg 72%
    20:00 +5°C° 0 mm 6 mps 752 mmHg 66%
    21:00 +4°C° 0 mm 6 mps 753 mmHg 61%
    22:00 +3°C° 0 mm 6 mps 753 mmHg 63%
    23:00 +3°C° 0 mm 5 mps 754 mmHg 65%

    19 October, Saturday

    Time Temperature Precipitation Wind Pressure Humidity
    00:00 +2°C° 0 mm 5 mps 754 mmHg 67%
    01:00 +1°C° 0 mm 5 mps 755 mmHg 70%
    02:00 +1°C° 0 mm 5 mps 755 mmHg 72%
    03:00 0°C° 0 mm 4 mps 755 mmHg 75%
    04:00 0°C° 0 mm 4 mps 756 mmHg 77%
    05:00 -1°C° 0 mm 4 mps 756 mmHg 78%
    06:00 0°C° 0 mm 3 mps 757 mmHg 80%
    07:00 -1°C° 0 mm 4 mps 757 mmHg 76%
    08:00 0°C° 0 mm 4 mps 757 mmHg 72%
    09:00 +1°C° 0 mm 4 mps 758 mmHg 68%
    10:00 +3°C° 0 mm 3 mps 758 mmHg 62%
    11:00 +3°C° 0 mm 3 mps 758 mmHg 57%
    12:00 +4°C° 0 mm 3 mps 758 mmHg 52%
    13:00 +5°C° 0 mm 3 mps 758 mmHg 50%
    14:00 +6°C° 0 mm 2 mps 758 mmHg 48%
    15:00 +7°C° 0 mm 2 mps 758 mmHg 46%
    16:00 +6°C° 0 mm 2 mps 758 mmHg 49%
    17:00 +5°C° 0 mm 2 mps 758 mmHg 53%
    18:00 +4°C° 0 mm 2 mps 758 mmHg 57%
    19:00 +4°C° 0 mm 2 mps 758 mmHg 58%
    20:00 +4°C° 0 mm 2 mps 758 mmHg 60%
    21:00 +3°C° 0 mm 2 mps 759 mmHg 61%
    22:00 +3°C° 0 mm 2 mps 759 mmHg 63%
    23:00 +2°C° 0 mm 2 mps 759 mmHg 65%
    Show more